Regional Weather Roundup
Issued by NWS Cleveland, OH

Home | Current Version | Previous Version | Text Only | Print | Product List | Glossary Off
Versions: 1 2 3 4 5 6 7 8 9 10 11 12 13 14 15 16 17 18 19 20 21 22 23 24 25 26 27 28 29 30 31 32 33 34 35 36 37 38 39 40 41 42 43 44 45 46 47 48 49 50

013
ASUS41 KCLE 271212
RWRCLE
OHIO REGIONAL WEATHER ROUNDUP
NATIONAL WEATHER SERVICE WILMINGTON, OH
800 AM EDT FRI MAY 27 2016

NOTE: "FAIR" INDICATES FEW OR NO CLOUDS BELOW 12,000 FEET WITH NO
SIGNIFICANT WEATHER AND/OR OBSTRUCTIONS TO VISIBILITY.

OHZ001>008-015>018-024>027-034-035-043-044-271300-
   NORTHWEST OHIO

CITY           SKY/WX    TMP DP  RH WIND       PRES   REMARKS
DEFIANCE       FAIR      67  61  81 S7        29.99S
FINDLAY        FAIR      68  61  78 S10       30.01R
TOLEDO EXPRESS FAIR      66  62  87 VRB7      30.00R
TOLEDO EXEC    FAIR      67  61  81 S9        30.01R
LIMA           FAIR      65  62  90 S7        30.02R
$$

OHZ009>014-019>023-028>033-038-089-271300-
   NORTHEAST OHIO

CITY           SKY/WX    TMP DP  RH WIND       PRES   REMARKS
CLE-HOPKINS    FAIR      71  63  75 SW9       30.04S
CLE-LAKEFRONT  FAIR      72  63  73 S9        30.00S
CUY CO. ARPT   SUNNY     73  66  78 S6        30.02F
LORAIN-ELYRIA  FAIR      69  61  75 SW9       30.03R
ASHTABULA      FAIR      69  66  90 SW9       30.04R
AKRON-CANTON   PTSUNNY   68  64  87 SW8       30.06R
WOOSTER        FAIR      66  63  90 SW8       30.06R
MANSFIELD      FAIR      66  63  90 SW8       30.05R
YOUNGSTOWN     PTSUNNY   69  64  84 SW8       30.05R
$$

OHZ042-051>053-060>062-070>072-077>081-271300-
  SOUTHWEST OHIO

CITY           SKY/WX    TMP DP  RH WIND       PRES   REMARKS
CINC-COVINGTON FAIR      66  63  90 S6        30.04S
CINC-LUNKEN    FAIR      62  62 100 CALM      30.05S FOG
HAMILTON       FAIR      66  63  90 VRB3      30.05R
DAYTON         PTSUNNY   64  62  93 S9        30.05R
WRIGHT-PAT AFB FAIR      65  65 100 CALM      30.04R FOG
DAYTON GENERAL FAIR      65  61  87 S8        30.03S
WILMINGTON     FAIR      65  62  90 S7        30.05S
$$

OHZ036-037-039>041-045>050-054>059-063>069-073>076-082>088-271300-
  CENTRAL AND SOUTHEAST OHIO

CITY           SKY/WX    TMP DP  RH WIND       PRES   REMARKS
COLUMBUS       PTSUNNY   65  61  87 CALM      30.05R
OSU AIRPORT    FAIR      67  62  84 S6        30.04S
BOLTON FIELD   SUNNY     64  63  94 S5        30.05S
RICKENBACK AFB FAIR      66  62  86 SW6       30.05R
NEWARK         FAIR      70  62  76 S5        30.05S
MARION         FAIR      64  62  93 S8        30.05R
LANCASTER      FAIR      71  61  70 SW7       30.06S
ZANESVILLE     FAIR      71  65  81 S5        30.06S
NEW PHILLY     FAIR      71  64  78 CALM      30.06S
$$




USA.gov is the U.S. government's official web portal to all federal, state and local government web resources and services.